Weather History for Idabel, OK

Change the Weather History Date:

Thursday, December 12, 2013

  Actual Average (KDEQ) Record (KDEQ)
Temperature  
Mean Temperature 34 °F 43 °F  
Max Temperature 46 °F 56 °F 78 °F (1996)
Min Temperature 21 °F 31 °F 12 °F (1962)
Degree Days  
Heating Degree Days 32 22  
Month to date heating degree days 249  
Since 1 July heating degree days 775  
Cooling Degree Days 0 0  
Month to date cooling degree days 0  
Year to date cooling degree days 1941  
Moisture  
Dew Point 23 °F    
Average Humidity 68    
Maximum Humidity 93    
Minimum Humidity 34    
Precipitation  
Precipitation 0.00 in 0.12 in 2.75 in (1954)
Month to date precipitation 1.47  
Year to date precipitation 46.10  
Snow  
Snow 0.00 in - - ()
Month to date snowfall  
Since 1 July snowfall  
Snow Depth -    
Sea Level Pressure  
Sea Level Pressure 30.52 in    
Wind  
Wind Speed 4 mph (ESE)    
Max Wind Speed 9 mph    
Max Gust Speed -    
Visibility 9 miles    
Events      
T = Trace of Precipitation, MM = Missing Value Source: NWS Daily Summary

Daily Weather History Graph

Daily Weather History Graph

Search for Another Location

Airport:

Trip Planner

Search our weather history database for the weather conditions in past years. The results will help you decide how hot, cold, wet, or windy it might be!

Date:

Astronomy

Dec. 12, 2013 Rise Set
Actual Time 7:15 AM CST 5:11 PM CST
Civil Twilight 6:47 AM CST 5:38 PM CST
Nautical Twilight 6:16 AM CST 6:10 PM CST
Astronomical Twilight 5:46 AM CST 6:40 PM CST
Moon 2:10 PM CST (12/12) 2:48 AM CST (12/12)
Length of Visible Light 10h 51m
Length of Day
9h 55m
Waxing Gibbous, 80% of the Moon is Illuminated
Dec 12
Waxing Gibbous
Dec 17
Full
Dec 25
Last Quarter
Jan 1
New
Jan 7
First Quarter

Hourly Weather History & Observations

Time (CST) Temp. Windchill Dew Point Humidity Pressure Visibility Wind Dir Wind Speed Gust Speed Precip Events Conditions
12:15 AM 28.4 °F 24.6 °F 23.0 °F 80% 30.58 in 7.0 mi NNE 3.5 mph - N/A   Clear
12:35 AM 28.4 °F 24.6 °F 23.0 °F 80% 30.58 in 7.0 mi NNE 3.5 mph - N/A   Clear
12:55 AM 26.6 °F 20.0 °F 23.0 °F 86% 30.57 in 7.0 mi NNE 5.8 mph - N/A   Clear
1:15 AM 26.6 °F 22.6 °F 24.8 °F 93% 30.57 in 7.0 mi NNE 3.5 mph - N/A   Clear
1:35 AM 26.6 °F - 24.8 °F 93% 30.58 in 7.0 mi Calm Calm - N/A   Clear
1:55 AM 26.6 °F 22.6 °F 23.0 °F 86% 30.59 in 5.0 mi NNE 3.5 mph - N/A   Clear
2:15 AM 26.6 °F 22.6 °F 23.0 °F 86% 30.59 in 5.0 mi NNE 3.5 mph - N/A   Clear
2:35 AM 24.8 °F 19.1 °F 23.0 °F 93% 30.59 in 5.0 mi NNE 4.6 mph - N/A   Clear
2:55 AM 26.6 °F 21.2 °F 23.0 °F 86% 30.59 in 4.0 mi NE 4.6 mph - N/A   Clear
3:15 AM 26.6 °F 22.6 °F 23.0 °F 86% 30.60 in 4.0 mi ENE 3.5 mph - N/A   Clear
3:35 AM 24.8 °F - 23.0 °F 93% 30.60 in 4.0 mi Calm Calm - N/A   Clear
3:55 AM 24.8 °F 19.1 °F 23.0 °F 93% 30.60 in 4.0 mi NE 4.6 mph - N/A   Clear
4:15 AM 24.8 °F 19.1 °F 23.0 °F 93% 30.60 in 5.0 mi East 4.6 mph - N/A   Clear
4:35 AM 26.6 °F - 24.8 °F 93% 30.59 in 7.0 mi Calm Calm - N/A   Clear
4:55 AM 23.0 °F - 21.2 °F 93% 30.60 in 4.0 mi Calm Calm - N/A   Clear
5:15 AM 23.0 °F - 21.2 °F 93% 30.60 in 4.0 mi Calm Calm - N/A   Clear
5:35 AM 21.2 °F - 19.4 °F 93% 30.60 in 5.0 mi Calm Calm - N/A   Clear
5:55 AM 23.0 °F - 21.2 °F 93% 30.59 in 4.0 mi Calm Calm - N/A   Clear
6:15 AM 24.8 °F 19.1 °F 23.0 °F 93% 30.59 in 5.0 mi East 4.6 mph - N/A   Clear
6:35 AM 23.0 °F 18.4 °F 21.2 °F 93% 30.60 in 5.0 mi East 3.5 mph - N/A   Clear
6:55 AM 24.8 °F 19.1 °F 23.0 °F 93% 30.60 in 7.0 mi East 4.6 mph - N/A   Clear
7:15 AM 26.6 °F 22.6 °F 24.8 °F 93% 30.60 in 7.0 mi East 3.5 mph - N/A   Clear
7:35 AM 26.6 °F 19.1 °F 23.0 °F 86% 30.60 in 7.0 mi ENE 6.9 mph - N/A   Clear
7:55 AM 28.4 °F 22.2 °F 26.6 °F 93% 30.61 in 10.0 mi East 5.8 mph - N/A   Clear
8:15 AM 30.2 °F 24.3 °F 26.6 °F 86% 30.61 in 10.0 mi ENE 5.8 mph - N/A   Clear
8:35 AM 30.2 °F 24.3 °F 26.6 °F 86% 30.62 in 10.0 mi East 5.8 mph - N/A   Clear
8:55 AM 32.0 °F 26.4 °F 26.6 °F 80% 30.62 in 10.0 mi East 5.8 mph - N/A   Clear
9:15 AM 32.0 °F 25.6 °F 26.6 °F 80% 30.62 in 10.0 mi East 6.9 mph - N/A   Clear
9:35 AM 33.8 °F 26.4 °F 26.6 °F 75% 30.63 in 10.0 mi East 9.2 mph - N/A   Clear
9:55 AM 33.8 °F 26.4 °F 26.6 °F 75% 30.63 in 10.0 mi East 9.2 mph - N/A   Clear
10:15 AM 35.6 °F 28.6 °F 26.6 °F 70% 30.63 in 10.0 mi ESE 9.2 mph - N/A   Clear
10:35 AM 35.6 °F 30.7 °F 26.6 °F 70% 30.62 in 10.0 mi East 5.8 mph - N/A   Clear
10:55 AM 37.4 °F 32.1 °F 26.6 °F 65% 30.62 in 10.0 mi SE 6.9 mph - N/A   Clear
11:15 AM 39.2 °F - 26.6 °F 61% 30.62 in 10.0 mi Calm Calm - N/A   Clear
11:35 AM 41.0 °F 39.0 °F 26.6 °F 57% 30.61 in 10.0 mi East 3.5 mph - N/A   Clear
11:55 AM 42.8 °F 41.1 °F 26.6 °F 53% 30.60 in 10.0 mi SE 3.5 mph - N/A   Clear
12:15 PM 44.6 °F 42.2 °F 24.8 °F 46% 30.58 in 10.0 mi East 4.6 mph - N/A   Clear
12:35 PM 44.6 °F - 23.0 °F 43% 30.56 in 10.0 mi Calm Calm - N/A   Clear
12:55 PM 44.6 °F - 23.0 °F 43% 30.55 in 10.0 mi Calm Calm - N/A   Clear
1:15 PM 46.4 °F 44.3 °F 21.2 °F 37% 30.53 in 10.0 mi SE 4.6 mph - N/A   Clear
1:35 PM 44.6 °F 43.1 °F 19.4 °F 37% 30.52 in 10.0 mi South 3.5 mph - N/A   Clear
1:55 PM 44.6 °F 40.7 °F 23.0 °F 43% 30.50 in 10.0 mi South 6.9 mph - N/A   Clear
2:15 PM 44.6 °F 42.2 °F 23.0 °F 43% 30.50 in 10.0 mi SSE 4.6 mph - N/A   Clear
2:35 PM 46.4 °F 45.2 °F 21.2 °F 37% 30.49 in 10.0 mi South 3.5 mph - N/A   Clear
2:55 PM 46.4 °F 44.3 °F 19.4 °F 34% 30.48 in 10.0 mi SSE 4.6 mph - N/A   Clear
3:15 PM 46.4 °F 44.3 °F 19.4 °F 34% 30.47 in 10.0 mi ESE 4.6 mph - N/A   Clear
3:35 PM 46.4 °F 43.5 °F 19.4 °F 34% 30.47 in 10.0 mi South 5.8 mph - N/A   Clear
3:55 PM 46.4 °F 44.3 °F 21.2 °F 37% 30.45 in 10.0 mi SSW 4.6 mph - N/A   Clear
4:15 PM 46.4 °F 43.5 °F 21.2 °F 37% 30.45 in 10.0 mi South 5.8 mph - N/A   Clear
4:35 PM 44.6 °F 42.2 °F 21.2 °F 39% 30.44 in 10.0 mi SSE 4.6 mph - N/A   Clear
4:55 PM 42.8 °F 40.1 °F 21.2 °F 42% 30.45 in 10.0 mi South 4.6 mph - N/A   Clear
5:15 PM 41.0 °F 38.0 °F 21.2 °F 45% 30.44 in 10.0 mi SE 4.6 mph - N/A   Clear
5:35 PM 39.2 °F 35.9 °F 21.2 °F 49% 30.44 in 10.0 mi SE 4.6 mph - N/A   Clear
5:55 PM 37.4 °F 32.8 °F 21.2 °F 52% 30.43 in 10.0 mi SE 5.8 mph - N/A   Clear
6:15 PM 37.4 °F 32.1 °F 23.0 °F 56% 30.42 in 10.0 mi ESE 6.9 mph - N/A   Clear
6:35 PM 37.4 °F 33.8 °F 23.0 °F 56% 30.41 in 10.0 mi ESE 4.6 mph - N/A   Clear
6:55 PM 35.6 °F 30.7 °F 23.0 °F 60% 30.41 in 10.0 mi ESE 5.8 mph - N/A   Clear
7:15 PM 35.6 °F 30.7 °F 23.0 °F 60% 30.41 in 10.0 mi ESE 5.8 mph - N/A   Clear
7:35 PM 35.6 °F 30.7 °F 23.0 °F 60% 30.41 in 10.0 mi ESE 5.8 mph - N/A   Clear
7:55 PM 35.6 °F 29.9 °F 24.8 °F 65% 30.41 in 10.0 mi ESE 6.9 mph - N/A   Clear
8:15 PM 35.6 °F 29.2 °F 24.8 °F 65% 30.40 in 10.0 mi ESE 8.1 mph - N/A   Clear
8:35 PM 35.6 °F 29.9 °F 23.0 °F 60% 30.40 in 10.0 mi East 6.9 mph - N/A   Clear
8:55 PM 35.6 °F 30.7 °F 23.0 °F 60% 30.41 in 10.0 mi ESE 5.8 mph - N/A   Clear
9:15 PM 33.8 °F 29.6 °F 23.0 °F 65% 30.41 in 10.0 mi ESE 4.6 mph - N/A   Clear
9:35 PM 33.8 °F 27.7 °F 23.0 °F 65% 30.40 in 10.0 mi ESE 6.9 mph - N/A   Clear
9:55 PM 33.8 °F 28.6 °F 23.0 °F 65% 30.40 in 10.0 mi East 5.8 mph - N/A   Clear
10:15 PM 32.0 °F 24.2 °F 24.8 °F 75% 30.38 in 10.0 mi ESE 9.2 mph - N/A   Clear
10:35 PM 33.8 °F 26.4 °F 24.8 °F 70% 30.36 in 10.0 mi East 9.2 mph - N/A   Clear
10:55 PM 33.8 °F 27.0 °F 24.8 °F 70% 30.37 in 10.0 mi East 8.1 mph - N/A   Clear
11:15 PM 33.8 °F 27.7 °F 26.6 °F 75% 30.37 in 10.0 mi East 6.9 mph - N/A   Clear
11:35 PM 35.6 °F 29.9 °F 26.6 °F 70% 30.37 in 10.0 mi East 6.9 mph - N/A   Clear
11:55 PM 35.6 °F 29.2 °F 26.6 °F 70% 30.36 in 10.0 mi ESE 8.1 mph - N/A   Clear